Location: Jaite
(41.2884°N, 81.5737°W)
Time: 06:09:02
(UTC+00:00)

SL-16 R/B - Pass Details

Date: 18 January 2020
Orbit: 841 x 848 km, 71.0° (Epoch: 23 February)

Event Time Altitude Azimuth Distance (km) Brightness Sun altitude
Rises 00:06:09 0° 346° (NNW) 3,417 5.4 -18.9°
Reaches altitude 10° 00:09:11 10° 2° (N) 2,477 4.5 -19.5°
Enters shadow 00:11:41 19° 25° (NNE) 1,919 3.7 -19.9°
